Theta_e
367 365 363 358 354 351 346 339 310 314 312 307 307 308 309 323 323 320 320 325 320 327 332 331 328 327 324 320 326 328 330 324 324 308 310 332 347 349 350 351 351 352 351 353 356 355 357 356 359 357 357 361 359 359 358 357 361 364 365 364 364 364 363 363 365 365 364 364 365 365 366 366 367 368 368 367 367 366 366 366 366 366 367 366 366 364 365 365 364 364 364 363 363 363 363 363 363
366 363 359 356 350 346 335 329 307 306 307 307 308 312 315 320 320 318 319 322 324 328 332 332 332 332 332 331 331 332 329 333 334 333 338 345 349 350 351 351 351 350 351 353 356 358 358 358 358 358 360 360 360 360 358 357 361 363 363 363 364 363 362 362 363 364 364 364 365 365 364 365 365 367 367 367 367 366 366 366 365 366 366 365 365 364 364 364 364 363 364 363 363 363 362 362 362
365 359 354 353 351 346 336 327 306 300 303 300 305 311 319 316 317 321 324 327 330 332 332 331 332 331 330 330 325 325 321 338 337 340 339 347 342 345 349 350 351 353 352 354 355 356 358 359 361 359 360 359 359 359 362 362 363 362 363 363 362 362 361 362 363 364 364 365 365 363 362 363 365 367 367 367 367 366 366 366 366 365 365 365 364 364 364 365 365 364 364 364 364 363 362 362 362
365 359 350 349 336 342 324 313 305 303 303 302 305 315 317 318 321 324 328 330 331 331 330 329 327 332 328 324 327 333 331 332 339 339 337 342 344 349 350 351 355 355 355 354 354 355 358 361 363 366 362 363 365 365 365 364 363 362 361 363 363 363 361 361 361 363 364 364 363 363 364 364 367 367 367 366 365 365 366 365 365 366 366 365 365 365 365 365 365 364 363 364 363 362 362 361 360
360 357 352 343 335 327 323 310 303 304 304 304 307 313 320 322 323 324 326 329 330 330 330 329 327 333 333 330 333 326 329 338 340 344 343 348 353 353 354 355 355 355 353 354 355 355 359 361 362 364 365 364 366 366 366 365 364 363 362 362 363 364 362 361 361 363 365 365 365 365 366 367 366 366 366 365 365 366 366 366 366 366 365 365 364 364 365 365 364 364 362 363 362 362 361 360 360
350 344 345 342 329 331 310 306 307 304 310 310 312 316 321 324 323 326 327 329 330 331 330 328 326 327 328 331 335 331 338 330 340 343 345 347 352 355 355 356 356 355 355 355 356 355 356 361 362 361 364 365 366 366 366 365 364 364 363 362 362 364 363 363 363 364 364 365 365 365 365 365 365 366 366 366 366 366 365 365 365 365 364 365 364 364 364 365 364 364 364 363 361 361 357 359 358
339 334 336 334 333 321 309 301 302 305 311 316 317 319 322 323 327 326 325 325 328 329 331 329 332 330 326 334 337 341 344 345 342 343 349 351 354 355 356 355 356 355 357 357 357 355 356 361 362 364 365 366 366 366 365 365 364 364 364 364 363 363 363 363 361 362 364 365 365 364 364 365 365 365 365 365 365 365 365 365 365 365 365 365 365 365 365 364 364 364 363 362 361 361 360 358 358
343 331 331 322 314 307 303 303 305 307 313 319 322 322 323 326 327 325 323 322 322 324 329 332 333 329 328 338 328 342 346 348 347 351 352 352 353 354 356 356 355 355 357 358 357 357 362 363 364 365 366 366 366 365 364 364 364 364 364 364 364 363 363 362 362 362 364 363 364 363 364 365 365 365 365 365 365 365 364 365 365 365 365 365 365 365 364 364 364 363 363 362 361 361 360 358 358
335 330 325 315 304 303 302 305 305 311 317 321 321 328 330 328 327 325 324 326 328 329 328 329 328 322 328 332 332 341 344 349 351 353 352 352 352 354 355 355 355 355 357 358 358 359 359 363 364 365 366 366 365 365 366 366 366 365 365 365 366 367 366 366 366 366 365 365 365 364 364 364 364 364 365 365 365 365 364 365 365 365 365 365 364 364 364 363 363 362 362 361 360 358 359 355 356
332 327 317 313 304 302 300 303 308 311 317 322 322 325 327 327 326 327 325 324 326 328 331 334 333 327 332 328 333 338 341 350 351 350 351 352 353 354 354 355 356 355 356 357 358 358 358 364 365 366 366 366 365 366 366 366 366 365 365 366 366 366 366 366 366 365 365 365 365 364 365 364 364 365 364 365 365 365 364 364 365 365 364 364 363 363 362 362 361 361 360 359 358 357 357 357 358
324 326 318 306 302 299 303 302 308 316 319 322 324 326 327 329 327 325 326 327 330 328 331 333 329 329 331 331 335 345 348 349 348 346 350 352 354 353 354 356 356 357 356 357 358 358 358 359 366 366 366 366 365 366 366 366 365 365 366 366 366 366 366 366 366 366 366 365 365 365 364 364 365 364 364 364 365 364 365 365 364 364 364 362 363 362 361 361 360 360 359 357 356 357 356 355 354
318 315 317 301 301 301 300 305 308 313 319 322 321 327 329 328 328 325 326 325 327 328 327 331 326 334 329 330 332 342 346 347 347 349 351 353 353 353 354 355 356 357 357 357 357 357 356 358 363 365 366 365 365 365 365 365 366 366 366 366 365 365 365 365 366 365 365 365 365 365 365 364 364 364 364 364 364 365 365 364 364 363 363 362 362 361 360 360 360 360 361 360 359 357 357 357 358
323 314 308 305 305 303 305 308 309 317 317 319 322 327 330 328 325 326 327 328 328 325 326 332 335 332 324 329 339 342 342 346 349 351 353 353 353 354 354 354 355 357 357 358 358 357 357 359 361 362 365 366 365 365 365 365 366 366 365 365 364 364 364 365 365 365 364 365 364 364 364 364 364 364 365 364 364 364 364 364 364 364 363 362 362 361 360 359 358 356 358 358 358 359 359 359 358
322 315 307 307 308 306 307 308 313 313 313 320 325 329 330 327 327 329 329 325 325 325 332 336 335 334 330 334 335 337 341 347 349 352 353 353 353 353 353 354 355 356 357 358 357 358 359 360 361 361 363 363 362 365 365 366 366 365 364 364 364 364 364 364 364 364 364 364 364 364 364 364 364 364 364 364 364 363 363 363 363 362 361 361 361 360 358 356 355 355 355 356 356 358 356 358 358
323 317 309 306 305 305 309 310 312 313 312 321 325 328 328 331 330 330 328 324 327 334 337 341 337 330 323 329 329 335 342 347 350 353 353 353 352 352 352 353 354 355 356 358 358 359 359 360 360 361 362 361 361 361 362 364 365 365 365 365 365 365 365 365 364 363 364 364 364 364 364 364 363 364 363 363 363 363 363 362 363 363 363 361 361 357 355 352 352 353 353 353 354 355 356 356 356
320 311 307 308 304 306 306 309 310 312 312 322 327 328 327 329 332 327 329 332 330 336 337 330 338 330 331 331 333 340 345 349 352 353 352 351 351 351 351 352 353 353 355 357 357 358 359 359 359 359 359 359 359 360 361 362 364 365 365 366 365 365 365 364 363 363 364 364 363 364 363 364 363 363 363 364 363 362 362 363 363 363 362 360 359 356 354 352 353 353 354 353 355 356 357 356 355
315 314 312 302 304 307 306 310 310 308 312 323 327 327 324 325 331 332 337 336 330 330 332 334 333 338 334 335 340 345 347 351 353 352 350 349 349 348 349 350 351 352 354 355 356 357 358 358 358 358 359 358 359 360 360 360 364 364 364 365 365 365 364 364 364 364 364 363 363 363 364 366 362 363 362 363 365 366 366 363 363 361 361 359 359 357 356 354 354 352 352 352 354 357 356 355 349
317 310 303 305 302 307 311 312 313 315 318 323 324 326 325 323 327 331 334 331 331 331 331 334 338 337 340 341 345 347 348 349 350 348 347 346 347 345 345 347 348 348 351 353 356 357 357 357 358 358 358 357 358 359 360 361 363 365 361 363 364 363 364 364 364 363 364 362 363 363 362 365 360 359 360 368 366 366 366 364 361 360 360 360 361 358 359 358 356 354 354 353 355 357 357 354 349
310 306 307 305 304 309 316 315 314 318 320 324 325 327 326 324 329 330 326 325 327 327 330 333 333 337 340 342 344 345 347 347 348 347 345 344 344 342 343 345 346 348 349 352 354 357 357 357 358 358 357 357 358 358 359 360 361 360 359 360 363 364 366 365 362 365 360 359 361 360 364 362 360 361 361 363 366 365 366 364 363 360 362 363 362 360 360 358 359 357 353 353 356 357 359 353 350
312 309 306 306 310 311 316 316 315 322 324 323 325 326 325 327 329 331 325 324 327 325 326 329 331 333 337 340 343 344 346 346 347 346 345 344 344 343 343 343 344 346 348 350 352 356 358 356 357 357 357 356 357 357 358 358 358 359 358 359 360 360 361 363 359 360 359 358 359 359 360 361 361 359 365 366 363 364 361 366 364 364 363 363 363 362 363 363 360 359 356 356 359 360 356 354 351
312 311 307 310 311 312 314 317 318 321 326 325 325 326 324 328 329 328 326 324 324 325 330 330 330 334 337 340 342 343 344 344 345 345 345 344 344 344 344 344 345 346 348 351 353 354 357 357 356 356 358 357 357 357 359 357 357 358 357 358 358 358 358 358 358 359 358 358 358 360 358 361 359 358 357 358 360 359 358 358 358 357 357 355 360 356 356 356 357 355 355 356 354 355 355 355 355
310 312 313 312 311 312 315 317 319 322 326 326 324 322 323 329 329 327 327 321 320 326 331 333 336 337 338 339 341 343 343 343 344 344 344 343 342 342 344 345 347 348 350 349 350 353 356 358 357 357 357 356 357 357 357 359 360 356 356 357 357 357 357 357 357 357 358 358 357 359 362 359 358 358 357 356 357 356 357 356 357 355 354 355 357 354 353 353 353 352 352 352 352 352 353 354 355
308 308 309 312 314 314 316 318 321 325 324 323 322 325 328 326 325 329 328 325 326 332 334 336 338 340 342 343 343 342 342 342 343 343 344 343 342 343 344 345 345 346 348 349 351 353 355 357 358 357 357 356 356 357 358 359 358 357 357 357 357 356 357 357 357 356 357 357 357 359 360 358 357 356 356 355 355 355 355 355 355 355 354 354 355 353 351 351 351 352 351 351 350 349 350 352 354
310 306 307 311 315 316 317 319 323 324 324 322 326 328 325 324 321 328 326 327 330 334 336 338 340 342 343 341 342 341 342 342 343 345 345 344 344 344 345 345 346 347 348 349 350 352 355 355 358 358 357 356 356 357 357 357 358 357 357 362 361 360 359 357 357 357 357 358 358 357 361 358 356 356 355 354 355 354 354 354 352 352 353 354 354 353 351 350 350 351 351 351 351 350 350 351 352
307 306 308 311 314 317 318 320 321 322 322 325 326 324 324 325 324 327 324 330 333 335 337 338 340 340 341 341 341 341 341 342 343 344 346 346 346 347 346 346 347 347 346 348 350 351 353 356 357 357 357 357 356 357 357 357 358 357 358 359 359 363 360 358 357 358 357 358 358 358 360 357 356 355 354 354 353 353 353 352 351 351 350 351 351 350 350 349 349 350 350 350 350 350 351 350 351
307 307 312 314 316 317 319 319 320 321 323 326 324 322 323 324 328 323 326 331 334 336 337 337 338 338 339 340 341 340 340 341 343 343 344 345 347 346 345 346 347 346 347 349 349 351 353 355 356 356 356 357 357 357 356 356 357 357 357 358 358 362 360 359 358 357 358 357 357 357 358 359 357 356 355 354 353 352 351 350 350 350 350 350 350 349 350 350 349 349 349 349 348 349 349 350 352
309 313 316 316 317 319 320 319 320 323 323 325 322 320 322 326 325 317 329 333 335 335 335 336 336 336 338 339 340 340 340 340 341 343 344 344 345 345 345 346 346 346 348 348 349 351 354 354 354 356 356 359 357 356 356 356 357 356 357 357 358 360 360 360 359 357 357 357 357 357 356 359 358 356 355 354 352 352 350 349 348 348 348 348 350 349 350 349 349 349 348 348 349 348 348 350 350
315 319 319 318 319 320 320 321 321 323 321 324 323 320 323 324 323 320 328 333 335 333 333 334 335 336 337 338 338 339 340 341 342 342 341 341 342 344 344 344 345 347 347 348 349 352 352 353 354 355 356 358 357 356 358 356 356 357 358 357 357 358 360 358 358 357 357 357 357 356 355 354 358 357 356 354 353 351 349 348 348 347 347 348 350 350 349 350 350 350 348 348 348 347 345 346 349
318 321 315 316 318 318 320 320 322 323 320 324 325 321 318 319 318 324 331 334 334 333 332 333 334 335 336 337 338 338 339 341 342 341 342 343 344 345 344 347 347 347 349 349 350 352 351 352 353 355 356 357 357 356 356 357 357 357 357 356 357 358 358 359 357 356 356 356 356 355 354 353 355 355 355 355 355 351 349 347 347 349 349 350 351 351 348 347 346 348 349 351 348 346 345 347 348
319 319 317 315 315 314 319 323 322 322 322 325 325 308 312 317 320 327 332 333 333 331 331 333 333 334 335 336 337 337 339 340 340 341 342 343 344 345 345 347 349 348 349 350 351 351 353 353 354 355 356 355 357 356 356 356 356 356 357 356 358 357 356 356 357 357 357 356 355 354 354 353 355 354 355 354 353 351 348 347 347 347 350 352 348 347 346 344 344 350 350 349 349 348 347 348 349
311 313 315 311 310 310 318 320 321 320 324 325 320 307 309 315 321 329 332 333 331 329 331 332 332 333 334 335 336 336 338 339 340 341 342 343 344 345 346 347 349 349 351 350 350 351 354 354 355 354 357 355 358 357 357 356 356 356 356 355 355 356 355 355 355 356 355 355 354 353 353 353 354 354 355 355 352 352 349 346 345 347 351 351 349 348 347 349 351 350 350 348 348 347 348 350 349
315 312 306 307 309 308 317 317 321 318 321 324 316 306 310 315 322 329 332 332 331 329 330 331 332 332 333 334 335 336 337 338 340 341 342 343 344 345 346 346 348 349 350 350 351 352 352 354 357 354 356 355 356 357 356 356 356 355 355 357 354 354 354 353 353 353 354 353 354 352 352 353 354 353 354 354 353 351 349 346 347 350 352 352 351 350 350 349 348 348 349 349 348 348 349 348 348
306 306 305 307 305 310 312 317 318 322 322 321 316 305 313 315 323 328 332 331 330 329 329 330 331 332 333 333 334 335 336 336 338 340 341 342 344 345 346 346 347 349 350 350 350 351 351 353 358 355 355 355 355 356 356 355 355 354 353 354 354 353 352 351 352 352 352 352 352 351 352 352 354 353 353 353 352 350 347 345 347 350 350 350 347 349 349 351 350 350 350 351 350 348 347 346 346
307 301 305 306 307 309 307 314 316 317 321 316 316 312 313 315 324 327 330 331 329 328 328 330 330 331 332 333 333 334 334 335 335 338 339 341 343 345 346 349 347 349 350 351 351 351 351 352 355 355 355 356 355 355 356 355 354 354 353 352 356 352 351 351 351 351 350 351 351 351 351 353 355 353 351 351 350 350 348 347 348 348 349 350 350 349 349 350 350 349 347 348 349 347 346 345 344
303 301 302 304 305 311 310 311 315 316 319 315 313 313 314 318 323 326 328 330 329 327 328 329 330 330 331 332 332 333 333 334 335 338 339 340 341 344 345 346 347 348 349 350 350 351 351 352 354 357 356 355 355 355 356 355 354 353 352 351 351 351 350 350 350 350 350 350 350 351 351 352 356 351 351 350 349 349 349 348 348 348 350 351 349 348 347 347 347 346 345 345 346 347 346 346 345
307 305 304 305 304 306 308 313 316 318 315 312 312 311 313 317 321 325 327 329 327 327 328 329 329 330 330 331 331 332 332 333 336 337 339 340 341 343 344 345 346 347 348 350 350 350 350 351 353 354 356 355 354 355 355 354 353 351 350 350 349 351 350 351 351 350 350 350 351 351 351 351 353 350 349 348 348 348 347 347 346 349 351 349 349 346 344 342 343 343 343 345 345 345 345 344 344
305 303 303 302 303 307 310 311 313 319 315 311 312 313 314 317 321 323 326 327 326 325 325 326 327 328 328 329 330 331 331 333 336 337 337 338 339 342 344 344 345 346 347 348 348 348 349 350 351 351 354 354 353 352 352 352 350 349 349 349 349 350 351 352 353 351 351 351 351 352 353 351 351 350 349 347 345 349 347 346 348 351 351 350 348 344 343 342 343 345 344 346 345 343 341 340 341
303 302 302 301 303 303 308 309 313 319 315 309 312 313 313 317 320 323 325 324 323 323 323 324 325 326 327 328 328 329 331 334 335 334 335 336 338 340 343 343 345 342 344 346 346 347 348 349 349 350 352 353 353 353 353 352 352 351 350 349 349 350 352 353 351 351 351 351 352 352 354 352 350 350 351 347 348 346 348 349 351 351 351 347 345 344 344 346 344 345 345 344 342 341 339 340 341
301 299 299 300 301 303 306 309 314 316 314 308 310 312 312 315 319 322 323 323 324 325 325 324 324 325 325 327 328 329 329 330 332 333 333 334 336 339 341 342 342 343 344 345 346 347 347 347 348 350 351 352 353 354 353 352 351 353 351 350 350 349 352 355 353 354 354 352 352 352 353 351 350 349 351 350 348 348 349 350 350 349 345 343 342 337 337 341 340 342 341 342 340 339 340 342 342
299 299 299 298 301 304 299 306 313 314 311 307 310 310 310 315 318 320 323 323 324 325 325 324 325 324 325 326 327 328 328 328 329 331 331 333 334 337 339 340 341 342 343 343 345 345 346 347 347 348 350 352 353 354 356 353 353 353 353 353 352 351 350 352 343 346 353 352 351 351 351 350 349 349 349 351 351 350 350 349 349 344 342 340 340 342 336 340 340 341 341 340 340 335 336 338 343
298 301 297 299 302 305 304 303 310 309 312 313 311 307 304 310 312 315 320 323 322 323 323 323 324 326 327 328 328 329 328 328 330 330 331 332 333 335 337 339 341 340 341 342 343 345 346 346 347 348 349 351 352 356 357 354 355 352 352 349 348 344 342 339 340 340 344 349 348 349 350 350 350 349 349 351 353 351 350 348 345 344 340 339 340 335 336 338 339 340 340 340 339 338 335 337 340
297 298 302 301 304 304 305 309 309 306 303 309 310 297 299 305 312 314 317 319 319 321 320 321 323 325 325 325 326 328 329 330 331 331 332 333 334 335 337 339 339 340 341 342 344 345 346 346 347 348 349 351 352 353 355 354 355 350 348 347 343 342 340 337 337 338 339 344 347 349 350 351 350 350 349 350 351 348 345 344 342 342 341 341 343 339 339 337 338 340 341 341 339 340 340 336 335
295 298 301 302 304 305 307 308 307 299 300 308 312 302 294 298 307 312 314 316 317 319 319 321 322 324 325 325 326 326 327 328 332 333 333 334 335 335 336 338 339 339 341 343 344 345 346 347 347 348 348 350 352 353 355 355 353 350 349 348 347 344 342 336 334 337 341 342 344 346 348 348 349 348 344 343 344 346 341 341 341 341 342 341 347 339 338 338 339 338 342 340 339 341 339 335 334
295 299 301 302 303 305 307 308 308 303 309 308 310 305 298 296 305 312 314 314 315 316 318 319 321 323 325 326 327 326 327 329 331 333 334 336 336 336 336 338 339 340 342 343 344 346 346 347 347 348 349 351 352 353 354 354 352 350 349 348 348 344 341 339 334 336 337 340 340 342 342 343 342 341 340 338 338 343 341 340 341 340 340 341 347 340 339 339 338 340 346 343 341 341 338 337 335
297 300 300 300 303 305 307 308 306 303 305 299 305 307 301 297 302 309 313 310 311 314 317 318 320 323 325 326 327 327 328 329 332 333 334 335 337 337 338 338 340 341 342 343 345 346 347 348 349 349 349 350 351 353 353 353 353 351 349 347 346 345 339 337 337 340 338 342 337 335 338 338 338 338 337 337 338 338 347 341 341 340 340 340 347 341 340 339 337 335 340 341 339 340 338 338 335
301 300 300 299 300 303 308 305 305 302 300 296 302 304 300 296 297 306 310 311 311 313 316 318 320 322 324 326 327 328 328 329 332 335 335 336 338 339 340 340 341 341 343 346 346 347 348 348 349 349 349 350 351 352 354 353 353 352 348 346 345 341 338 336 335 336 335 335 334 334 335 336 336 337 337 338 339 339 346 343 341 341 340 340 346 340 337 337 337 337 337 337 334 338 338 340 338
301 301 299 298 299 300 301 300 299 298 295 296 304 306 304 297 298 305 306 309 314 315 316 318 320 322 323 326 328 328 328 329 331 334 336 337 339 340 341 340 341 342 344 345 346 347 348 348 349 349 349 351 352 352 353 352 352 350 348 345 344 340 335 334 333 333 333 332 332 332 334 335 334 334 336 337 337 340 342 344 341 340 340 346 347 340 339 339 340 340 340 338 336 336 336 338 339
302 299 295 295 295 298 295 293 299 295 289 297 302 305 305 297 295 302 312 316 317 317 315 316 318 320 322 325 327 329 329 329 331 334 335 337 338 339 341 341 341 342 344 345 346 347 348 348 349 349 349 350 351 352 352 351 351 349 348 345 343 340 335 334 332 332 332 332 331 332 333 334 333 334 335 336 338 338 343 342 342 340 341 341 342 339 340 341 340 339 339 338 336 334 333 337 335
300 296 298 293 286 291 292 294 292 291 294 299 300 305 300 300 304 307 311 314 316 317 318 318 318 320 322 324 327 329 330 330 331 333 335 336 337 338 339 341 342 342 343 345 346 347 348 348 348 348 348 350 350 352 351 351 349 347 345 342 341 339 336 335 333 332 332 332 331 332 332 332 332 333 335 336 337 338 340 338 338 336 338 340 339 337 339 340 340 339 338 336 335 335 335 336 335
297 297 291 290 287 287 282 285 286 287 292 298 297 306 300 298 304 311 309 313 316 318 319 320 319 320 322 324 326 328 329 330 331 333 335 336 337 339 340 341 342 343 344 345 346 348 348 349 349 348 348 350 350 350 351 349 348 345 342 340 339 339 336 335 333 332 332 333 332 333 333 332 332 334 334 335 337 337 340 338 340 338 337 336 340 338 339 340 340 340 339 338 336 337 336 336 336
298 296 298 293 289 286 284 285 288 290 294 295 300 300 295 299 303 310 315 315 316 318 319 320 321 320 322 324 326 328 329 330 332 333 334 336 338 339 340 341 342 343 345 346 347 348 349 348 349 349 348 349 349 349 349 347 346 343 339 338 337 337 336 334 333 333 333 333 333 333 333 333 333 334 334 337 337 337 338 337 338 337 337 337 339 342 344 341 342 341 341 339 339 337 336 337 336
295 295 298 293 295 293 291 289 291 291 292 291 296 296 299 305 308 310 313 315 314 316 317 319 318 319 320 321 323 326 328 330 332 333 334 336 338 339 340 341 342 343 345 346 348 349 349 349 349 350 349 349 349 348 348 347 345 341 338 335 334 337 339 335 334 336 333 335 334 334 333 333 334 334 333 337 336 337 336 336 339 340 337 337 338 339 339 341 340 339 339 339 339 340 337 336 337
295 297 293 295 299 299 294 298 296 293 290 290 294 296 296 301 308 312 310 311 312 313 314 315 316 317 318 320 322 325 328 329 331 333 334 336 338 339 341 342 342 343 345 346 347 349 350 350 350 350 350 350 348 348 347 346 343 339 336 335 334 335 336 333 333 333 332 334 335 334 334 334 334 334 333 337 336 337 336 336 336 337 338 337 336 337 339 339 339 339 339 337 337 337 339 337 336
295 292 296 299 300 298 296 289 287 287 287 288 292 295 294 297 296 304 308 308 311 311 312 314 315 316 317 319 321 324 327 329 331 333 335 336 338 339 340 342 343 343 344 346 348 350 351 351 350 350 350 349 347 347 346 344 341 339 336 334 334 335 335 334 333 333 333 334 334 334 334 334 333 334 335 336 336 336 336 341 336 336 337 336 336 336 337 337 337 337 337 337 337 337 336 337 337
302 296 300 299 293 293 291 291 287 286 286 286 289 294 294 297 299 300 305 307 309 311 312 312 313 315 317 318 320 323 326 328 330 332 333 335 337 339 340 341 343 344 345 346 348 350 350 351 351 351 350 350 348 347 346 344 341 339 337 335 334 334 335 334 334 335 334 333 333 333 333 334 334 335 337 336 336 335 335 336 337 336 335 336 335 335 336 336 336 336 336 337 337 336 335 335 336
300 301 299 301 298 292 292 294 291 293 285 286 287 291 291 298 300 303 305 308 310 311 310 311 313 315 317 318 320 322 324 326 329 331 333 335 337 338 340 341 342 343 344 345 347 349 350 350 351 351 351 351 347 345 345 341 339 339 338 336 335 335 335 334 334 334 333 333 333 333 333 332 333 336 335 335 336 336 335 335 335 336 335 335 334 335 335 336 335 335 336 336 336 336 335 335 336
295 296 294 298 300 297 296 296 292 291 287 286 285 287 289 295 302 304 307 307 310 311 311 312 314 315 317 319 320 321 323 325 328 330 332 334 335 338 339 341 342 344 345 345 346 348 349 350 350 350 349 349 346 344 343 341 339 338 338 335 334 335 335 335 334 334 333 333 333 335 333 334 334 333 334 334 334 335 335 336 335 336 336 335 334 334 334 335 334 335 335 335 335 335 334 335 335
296 297 295 295 293 295 292 290 293 291 291 283 284 289 289 299 306 307 307 309 310 312 312 313 314 315 317 318 320 322 323 325 327 329 331 333 334 336 338 340 341 342 343 344 346 347 349 349 350 350 350 349 346 343 342 341 338 337 337 336 335 335 335 334 334 333 333 332 332 334 334 334 332 333 333 333 333 334 335 334 334 334 334 334 334 334 333 334 334 334 334 334 334 334 333 334 334
Wind_Speed
11 8 6 5 3 3 3 1 1 2 4 2 1 3 0 1 2 2 3 3 3 2 3 6 6 2 1 2 9 9 8 2 0 2 4 2 2 4 5 4 4 5 4 4 3 4 7 10 19 24 20 20 21 19 19 14 14 18 19 19 19 19 19 16 15 16 17 16 15 14 14 13 14 13 13 12 11 11 11 10 10 10 10 9 9 9 9 9 9 9 8 7 7 6 6 6 6
7 7 7 6 3 1 1 1 3 3 4 4 2 0 2 1 2 2 4 2 0 2 4 9 9 12 14 14 10 5 10 6 3 3 5 5 5 4 5 4 4 5 4 3 3 4 6 9 16 18 21 21 24 24 24 21 18 19 18 18 17 17 15 13 13 11 15 15 14 14 14 14 14 13 12 12 11 11 11 10 10 9 9 9 9 9 8 8 8 8 7 7 6 6 5 5 5
7 7 5 4 1 1 1 2 2 1 5 3 2 1 1 2 2 3 3 5 8 9 9 9 8 6 4 3 7 5 2 8 10 9 5 8 8 4 5 5 4 5 4 3 3 4 4 8 11 18 18 22 22 22 22 20 20 20 20 19 18 15 14 13 13 11 15 14 14 14 14 14 14 13 12 12 11 11 10 10 9 9 9 8 8 8 8 8 7 7 6 6 6 5 5 4 4
8 4 6 3 1 2 1 1 3 5 5 4 0 1 1 1 3 6 5 7 9 7 2 4 6 3 5 11 6 8 8 6 7 9 7 5 0 7 7 5 6 6 5 3 3 3 3 9 11 14 16 18 20 20 20 20 19 19 20 19 17 16 15 14 12 12 15 15 14 14 13 13 13 12 12 11 11 10 10 9 9 9 9 8 8 7 7 7 6 6 6 5 5 5 4 4 4
7 4 1 1 3 2 0 1 4 2 4 5 5 2 2 3 5 7 4 4 2 3 3 3 5 4 7 7 1 1 4 7 6 3 4 3 6 7 7 6 5 6 6 4 2 2 3 12 9 11 15 17 18 19 18 18 18 18 16 14 14 14 14 13 12 13 14 13 13 12 12 12 11 12 11 11 10 10 9 9 9 8 8 8 7 6 6 6 5 5 5 5 5 4 4 3 3
6 4 1 1 0 2 2 1 2 0 2 2 4 3 4 4 6 8 8 7 5 6 5 6 3 4 5 4 2 4 6 5 6 3 5 7 9 9 8 7 6 6 6 5 4 2 3 11 12 12 12 15 17 18 17 16 15 15 14 13 11 11 15 13 12 13 13 12 11 11 11 11 11 11 11 10 10 9 9 9 8 8 7 7 6 6 5 5 5 5 5 5 4 3 3 2 1
8 4 1 2 1 2 3 4 2 3 0 1 3 4 7 5 6 10 8 6 7 11 2 7 12 11 9 2 5 4 1 6 4 5 4 10 10 9 8 7 7 7 7 5 4 4 4 9 14 14 15 14 15 16 17 16 14 13 13 13 12 14 15 14 13 13 12 12 12 11 11 11 11 10 10 9 9 8 8 8 8 7 7 6 6 5 5 4 4 4 4 4 3 3 2 2 1
2 3 2 2 0 2 3 3 3 1 0 1 0 9 5 7 7 5 5 5 3 4 3 4 1 8 5 2 5 3 6 5 8 9 10 10 10 8 7 7 8 8 7 5 4 3 7 10 14 14 14 14 14 15 16 16 16 15 14 14 13 15 16 15 15 14 13 12 12 11 11 10 10 10 9 8 8 8 8 7 7 7 6 5 5 4 4 4 4 4 4 3 3 2 2 0 2
1 4 1 2 2 2 3 2 1 0 1 3 3 4 6 5 3 7 7 3 7 6 7 5 2 8 2 8 6 5 6 10 10 10 11 10 10 8 5 8 8 8 7 6 4 2 3 9 13 13 14 14 15 15 15 15 14 15 15 15 15 14 14 14 13 13 13 12 12 11 11 10 10 9 8 8 8 7 7 7 7 6 6 5 4 3 3 3 3 3 3 3 2 1 2 3 3
2 2 1 1 2 6 3 2 4 1 1 1 3 7 7 3 3 4 12 6 6 6 4 5 6 11 9 11 5 3 5 12 11 11 9 8 9 7 7 8 10 10 9 6 4 3 2 9 12 12 12 13 14 13 13 13 13 13 13 13 13 13 13 13 12 12 11 11 11 10 10 10 9 8 8 7 7 7 7 7 6 5 4 4 3 2 2 2 2 2 2 1 1 0 2 2 4
1 2 1 1 5 4 4 1 3 3 2 3 3 3 3 4 6 5 4 9 4 4 6 13 11 10 7 6 4 4 9 10 11 11 10 9 8 8 8 7 7 8 8 7 5 3 2 0 12 11 11 12 13 12 12 12 12 12 12 12 12 12 12 11 11 10 10 10 10 10 9 9 8 8 7 7 7 7 6 6 5 4 4 3 3 2 2 2 2 2 1 1 1 2 3 2 3
1 2 0 3 3 6 3 6 3 3 3 3 3 2 2 6 5 7 8 11 5 6 5 1 6 8 9 4 4 8 8 8 9 9 9 8 7 7 7 5 5 5 6 7 6 4 4 2 3 10 12 12 12 12 11 11 11 11 11 11 11 11 10 10 10 10 10 10 9 9 9 8 8 8 7 7 7 6 6 5 3 3 3 3 3 3 2 2 2 1 1 0 0 2 4 5 5
1 1 3 5 1 4 3 6 3 4 3 4 5 2 4 5 5 11 6 8 7 6 1 3 14 2 5 5 5 8 8 8 9 10 10 7 7 6 6 5 5 5 6 6 6 5 4 3 3 5 8 13 12 12 11 11 11 10 10 10 10 10 10 10 9 9 9 8 9 8 8 8 8 7 7 6 6 5 4 4 3 3 3 3 3 4 3 4 5 6 5 3 4 8 8 8 7
4 5 2 2 1 4 6 4 3 5 4 3 1 2 4 2 3 9 13 9 4 1 2 10 3 8 9 8 6 7 7 9 11 10 9 9 7 7 7 5 6 5 4 5 6 5 4 4 3 3 6 6 5 9 11 12 11 11 11 10 10 10 10 9 9 9 8 8 8 8 8 8 7 7 6 6 5 4 3 3 3 4 4 3 4 5 7 14 16 15 13 15 12 8 7 8 8
3 2 4 4 4 3 1 8 11 6 5 5 3 7 3 1 5 2 4 15 2 4 7 3 7 2 5 10 10 9 9 12 11 10 10 9 9 7 7 6 5 4 4 5 4 5 5 4 4 2 4 4 4 4 4 8 11 11 11 10 11 11 10 10 9 8 8 8 8 8 7 7 6 6 6 5 4 4 4 4 4 4 4 4 5 7 11 6 6 10 8 7 8 7 6 8 8
4 5 3 4 4 7 4 2 2 5 4 4 4 6 6 4 3 2 1 1 7 5 3 4 0 1 7 4 6 12 13 13 10 11 11 11 8 7 6 6 5 4 3 4 4 4 4 4 3 3 3 3 3 3 4 3 8 11 11 11 10 10 10 9 10 9 9 8 8 8 7 5 5 4 6 4 5 5 4 4 4 5 5 4 4 4 1 1 3 7 8 7 9 9 8 7 8
2 2 0 3 4 6 4 5 7 7 3 4 6 6 4 6 3 3 3 10 15 8 1 2 2 2 12 2 12 13 14 12 11 13 11 9 8 6 5 5 5 4 3 3 3 4 4 4 4 3 3 3 3 3 3 3 4 9 8 9 10 9 9 10 9 10 8 8 7 7 6 2 2 1 2 1 4 2 3 5 6 5 7 7 6 4 2 3 2 4 9 6 9 7 7 5 4
1 1 4 0 4 8 8 10 10 4 12 9 9 7 10 9 3 5 10 7 5 6 5 3 6 6 8 9 14 13 13 13 14 14 12 11 8 8 8 7 7 8 6 5 4 4 4 3 4 3 3 3 3 3 2 2 2 6 4 4 4 6 7 8 6 3 5 2 7 4 3 2 2 1 0 2 1 3 4 6 6 6 7 7 6 8 6 4 3 3 2 7 10 9 7 1 0
4 1 1 5 4 4 10 8 6 10 8 14 9 8 9 6 13 6 8 7 5 7 4 8 8 8 10 13 14 14 13 13 12 12 14 13 10 12 9 8 7 7 7 6 6 6 4 4 3 4 4 3 4 3 3 2 2 3 4 4 3 6 4 5 3 3 3 3 1 3 2 2 2 1 0 3 2 5 5 6 7 7 6 6 7 7 9 8 8 4 4 6 10 11 5 2 4
2 5 2 5 7 2 5 11 10 11 15 12 11 9 5 4 6 6 8 10 6 7 8 6 10 11 13 14 14 13 12 12 11 11 13 13 10 11 10 11 9 8 8 7 7 5 5 5 5 4 5 4 4 4 3 3 2 3 3 3 3 3 3 3 3 3 3 3 2 2 3 2 1 1 3 5 5 3 3 6 8 8 8 6 7 5 6 7 8 7 3 6 7 3 2 2 1
1 2 4 5 5 5 4 13 10 8 17 14 12 9 5 7 4 6 13 10 3 4 9 10 14 16 16 15 15 13 12 12 11 11 11 10 9 7 7 8 9 8 6 6 5 6 7 7 5 5 4 4 4 4 4 4 3 3 3 3 3 3 3 2 3 3 3 3 2 2 2 1 1 2 2 3 3 3 3 3 3 3 3 3 3 3 3 4 4 3 1 1 1 2 2 3 3
3 6 5 5 4 2 7 11 12 12 9 15 12 13 10 5 3 7 15 11 8 11 11 6 12 14 17 18 15 12 13 13 12 11 11 12 13 10 7 6 5 5 6 7 7 7 8 7 6 4 4 4 4 4 4 4 4 4 4 3 3 3 3 2 2 2 2 2 2 2 1 2 2 3 3 3 4 3 4 4 3 3 3 3 2 3 3 4 4 3 2 2 1 2 3 3 2
3 4 3 6 7 4 5 8 11 15 10 12 13 9 9 9 5 9 11 4 3 5 11 12 15 16 14 13 13 13 13 13 13 12 11 11 10 9 9 8 8 8 7 7 6 6 7 7 6 5 5 5 5 4 3 3 3 4 4 4 4 3 3 3 2 2 3 2 2 2 3 3 3 3 3 4 4 3 4 4 4 3 3 3 2 3 4 3 3 3 3 3 1 2 3 3 2
3 7 1 6 7 8 11 12 15 14 18 15 10 11 13 8 8 8 5 3 3 11 12 13 13 14 15 14 13 14 13 14 14 12 12 12 12 12 10 10 7 5 6 6 6 6 6 9 7 6 6 5 4 4 4 4 3 4 4 4 4 4 3 3 3 3 3 3 3 3 2 3 3 3 4 4 4 3 4 4 3 3 3 3 2 2 3 3 3 3 3 4 3 2 2 3 2
5 6 4 2 5 9 11 14 13 12 10 10 11 14 14 12 8 11 3 2 9 12 13 14 14 14 13 15 14 13 12 11 11 10 8 6 8 8 7 6 6 6 8 7 6 7 7 7 9 9 6 6 5 5 5 4 4 4 3 4 4 5 4 4 4 3 3 3 4 4 3 4 3 4 4 5 4 4 4 3 3 3 3 3 3 3 2 4 4 3 3 3 3 4 3 4 3
4 6 2 5 6 11 12 13 12 12 7 11 13 8 4 5 10 3 1 5 8 13 14 14 15 14 13 14 14 13 12 12 11 11 11 8 8 10 9 8 8 9 9 8 7 7 7 7 9 9 8 6 6 6 5 5 5 5 5 5 4 5 4 4 4 4 4 4 4 4 4 4 4 4 5 4 4 5 4 3 3 3 3 3 2 4 2 3 4 3 2 2 2 2 3 3 4
2 1 2 9 9 12 12 14 11 11 9 15 15 8 6 7 8 2 3 8 11 13 14 13 15 15 13 12 11 12 13 13 13 11 9 8 9 10 10 9 9 10 8 8 8 7 7 8 9 9 8 8 6 6 6 6 5 6 6 5 4 5 5 4 4 4 4 4 5 4 4 4 4 4 5 4 4 4 3 3 3 2 3 3 2 3 3 4 4 4 5 5 4 3 3 3 3
5 7 12 9 7 9 8 11 11 9 3 8 12 6 5 4 1 5 11 11 14 16 14 14 13 13 12 12 11 9 10 10 9 10 12 11 10 10 10 10 10 9 10 10 8 7 8 10 10 10 9 8 8 8 7 6 7 7 6 5 5 5 5 5 4 5 5 5 5 4 4 4 6 5 5 5 5 4 3 3 3 3 4 3 2 3 4 5 4 3 4 6 4 2 3 4 3
4 14 9 4 9 8 8 14 10 11 5 8 10 11 4 4 5 3 10 13 13 15 13 14 13 12 11 11 10 9 10 9 9 9 11 10 9 9 11 10 10 10 8 9 9 9 10 10 9 10 9 9 8 9 7 7 6 6 5 6 5 5 5 4 5 5 5 5 4 5 5 5 4 5 5 5 5 3 3 2 3 4 3 2 2 3 3 3 5 4 6 4 3 3 4 5 4
5 5 11 6 5 5 3 2 7 7 7 15 12 3 8 9 2 9 10 13 12 12 12 12 11 10 10 10 10 10 9 9 10 10 9 9 9 10 11 10 11 10 8 7 8 10 8 7 7 7 9 9 9 7 7 6 6 6 6 5 5 5 5 5 5 5 4 4 5 5 5 5 4 5 5 4 3 3 4 3 3 4 3 2 4 4 5 2 6 6 4 3 4 3 4 5 5
5 3 5 7 9 7 6 4 7 9 7 16 1 5 7 7 3 10 11 14 18 15 13 12 11 10 10 10 10 10 10 10 11 11 10 10 9 9 11 10 11 10 7 7 10 11 9 8 7 6 9 9 8 8 8 7 6 6 6 5 5 5 5 5 4 4 4 4 4 5 6 6 5 5 5 4 4 4 2 1 2 3 4 3 2 3 5 5 5 5 3 3 3 3 4 4 5
3 9 0 2 6 6 7 3 8 14 4 8 3 1 6 6 7 11 12 12 14 15 14 13 12 11 11 10 10 10 10 9 10 12 12 12 11 10 10 11 10 9 10 10 9 8 9 8 8 8 9 10 9 9 8 7 6 6 6 5 5 5 4 5 5 5 5 4 4 5 5 5 6 6 5 5 4 4 4 3 2 3 4 2 3 4 4 4 4 3 3 3 3 4 4 5 4
3 7 4 7 1 7 4 7 3 3 13 5 2 4 2 0 6 9 11 13 12 12 13 13 13 13 12 11 10 10 9 10 10 11 12 11 10 9 10 10 10 12 11 9 9 8 9 9 9 9 10 10 9 9 8 7 6 6 6 6 6 5 5 5 5 4 4 4 4 5 5 5 5 5 5 4 4 4 4 3 3 6 5 4 3 4 4 4 2 2 2 3 3 4 4 6 5
4 2 6 3 6 6 4 2 4 2 8 9 2 4 4 2 12 11 11 13 12 11 13 13 13 12 12 11 11 11 11 11 13 12 13 12 9 10 9 9 11 11 10 10 10 11 11 9 9 9 8 9 9 9 8 8 7 6 5 5 4 5 6 5 4 4 4 5 4 6 5 5 4 4 4 4 5 4 4 3 3 4 4 4 5 4 3 1 1 1 3 2 3 3 3 4 5
8 4 4 4 3 8 11 10 10 8 7 4 2 2 3 5 11 14 13 13 13 13 13 14 13 12 11 11 11 11 11 13 14 13 13 11 11 10 9 9 9 9 8 10 9 8 7 7 8 9 9 9 8 8 7 7 6 5 4 4 4 5 4 4 4 4 5 5 5 5 4 4 3 4 4 5 5 4 3 3 3 4 4 3 2 2 2 1 1 2 2 2 1 2 4 4 5
12 10 6 5 7 8 10 6 3 15 12 7 7 9 6 7 11 12 12 13 14 12 11 11 12 12 11 11 11 11 12 14 13 12 13 11 11 11 10 9 9 9 9 8 9 8 8 8 7 7 8 8 7 6 6 6 5 5 6 4 4 5 5 4 5 6 5 5 5 4 4 4 4 4 5 4 4 4 4 3 3 1 1 1 1 2 2 1 2 4 3 2 3 2 3 4 3
7 4 4 5 5 6 3 2 3 8 6 8 6 1 8 11 15 16 15 12 11 10 11 11 11 12 12 11 12 13 13 15 13 13 13 13 13 12 11 9 9 9 8 8 8 9 9 10 8 10 8 7 7 7 6 7 6 5 4 6 7 6 5 5 5 5 5 5 5 4 5 5 5 5 4 4 4 4 3 2 1 1 1 1 1 2 2 2 2 2 2 2 3 3 3 2 3
8 7 6 6 7 7 3 2 2 9 10 4 4 4 7 11 12 13 12 12 15 16 14 13 14 13 12 13 13 14 15 10 7 7 10 11 11 11 10 9 9 10 9 9 10 11 10 9 10 10 7 7 8 9 8 7 7 7 6 6 5 5 5 5 5 4 5 4 4 4 4 5 5 5 5 4 3 3 2 0 1 1 1 1 1 2 2 2 3 2 1 1 2 2 2 2 4
3 7 5 5 7 4 3 3 3 4 1 2 3 7 5 4 9 10 14 18 17 16 16 15 14 13 12 12 14 13 11 10 10 11 12 12 13 13 11 11 11 13 12 12 12 11 10 9 10 9 8 8 8 8 7 7 6 6 7 5 7 4 3 4 5 5 5 5 5 5 5 5 5 4 5 5 4 3 2 2 2 2 2 1 0 2 2 2 1 1 1 1 1 1 2 2 4
5 4 4 5 5 7 3 2 8 1 2 3 2 3 1 1 3 9 13 15 10 10 10 10 12 14 15 16 16 14 13 12 13 13 13 13 13 12 12 12 12 11 10 10 10 12 10 10 10 9 9 9 8 8 8 8 7 6 5 5 5 4 4 4 3 2 4 5 5 5 4 5 4 4 4 4 3 3 3 4 3 2 2 1 1 1 2 2 1 0 1 1 2 2 3 2 3
2 5 4 2 2 7 8 4 4 1 3 3 6 2 3 2 6 7 10 9 6 8 9 9 9 11 14 12 10 12 15 13 12 12 12 12 13 14 15 14 12 12 12 12 12 12 9 12 12 11 10 10 8 8 9 7 6 5 4 4 3 4 4 4 4 2 3 4 3 4 5 5 5 4 4 4 4 5 5 4 3 4 3 1 1 1 2 2 1 1 1 2 2 1 2 1 2
3 5 8 7 7 5 6 10 10 4 3 3 8 1 5 5 10 13 8 8 11 8 11 14 13 13 10 9 12 12 11 11 14 15 15 15 14 13 12 13 13 13 13 13 13 13 12 12 12 11 9 8 9 9 9 8 8 8 6 6 5 3 3 3 5 6 4 4 4 3 3 5 5 4 4 5 5 4 5 4 4 4 3 2 2 3 2 1 1 2 2 2 2 2 1 2 2
4 6 9 7 7 7 11 12 9 4 6 8 7 9 6 3 9 11 9 11 14 8 12 14 13 13 12 12 12 12 13 12 10 10 11 12 13 13 14 14 15 15 15 13 12 12 13 12 12 12 11 9 9 9 9 8 8 7 9 9 7 7 7 4 2 3 5 4 3 5 4 4 4 5 5 5 5 4 4 4 5 4 4 3 3 2 2 3 2 1 2 2 2 2 2 1 2
3 3 11 8 7 10 10 14 12 5 2 4 5 1 2 3 9 7 9 11 11 13 14 13 14 15 15 14 14 13 14 13 13 13 13 15 15 16 17 16 15 16 14 12 12 11 13 13 11 12 10 10 9 9 10 10 10 9 8 8 7 7 7 7 5 5 3 4 5 5 4 4 4 4 5 5 4 4 4 4 4 4 4 2 3 3 3 2 0 0 1 1 1 2 3 2 2
4 3 10 9 10 10 11 12 9 4 7 1 4 0 0 4 7 1 13 9 10 17 18 17 16 17 17 16 16 15 15 15 15 14 15 15 16 16 15 15 15 14 12 13 13 12 12 12 12 11 11 10 9 10 10 10 10 10 9 8 7 5 6 5 5 4 5 4 6 4 5 5 4 3 3 4 4 4 4 5 5 4 4 3 3 2 2 2 2 2 2 2 2 3 3 3 2
6 5 5 4 4 3 11 8 8 2 4 6 8 6 6 8 4 1 4 10 14 19 21 21 19 18 17 17 16 16 15 13 14 16 15 15 15 15 14 13 12 13 12 12 12 11 11 10 11 11 12 10 9 11 11 11 10 9 9 8 9 6 5 4 5 6 5 5 6 5 4 5 4 4 3 3 4 3 5 5 5 5 5 4 3 3 2 2 2 2 3 3 2 2 3 3 3
4 9 5 5 7 4 3 4 4 4 3 7 11 12 11 8 6 8 10 11 19 18 14 13 13 14 16 18 19 17 15 14 13 14 13 15 14 13 11 13 14 11 10 11 11 11 11 11 11 12 13 10 10 11 11 12 10 9 9 9 10 9 7 7 6 5 4 4 5 5 5 5 4 5 3 3 4 4 4 5 5 5 4 4 3 3 4 3 3 3 3 3 3 3 2 3 3
7 3 4 5 3 5 5 4 2 4 5 9 8 11 8 10 5 5 14 15 20 19 18 18 18 20 19 17 17 18 17 15 14 14 14 13 10 10 10 12 12 12 11 11 11 11 11 11 11 13 11 11 10 10 11 11 10 10 9 10 10 9 9 8 9 8 7 7 6 6 5 4 4 3 3 4 4 4 5 5 4 4 4 4 4 4 3 3 2 2 2 3 3 2 2 2 2
5 6 6 7 3 1 0 2 2 6 8 6 2 8 4 10 14 9 14 15 13 14 15 18 19 20 19 18 18 16 15 15 15 15 14 12 13 14 14 13 12 12 14 14 14 13 12 12 13 13 13 11 10 10 11 11 10 10 9 9 9 8 9 9 9 8 8 8 7 6 5 6 4 4 4 5 4 5 4 5 4 4 3 3 4 3 4 4 3 3 3 3 2 3 3 3 2
7 7 6 6 3 2 3 2 1 2 7 6 3 9 7 2 9 11 10 16 18 16 18 17 14 19 19 19 16 15 15 16 16 15 15 15 15 14 15 15 14 13 14 15 14 14 12 12 13 14 14 12 10 10 11 11 11 10 9 9 9 8 9 9 8 9 8 7 7 7 7 7 7 6 6 6 6 6 5 5 5 5 5 4 4 4 4 4 4 4 4 4 4 3 2 3 3
9 5 11 8 7 5 4 3 4 6 8 3 2 9 6 5 9 10 17 19 14 16 15 5 2 8 14 15 13 15 16 15 15 16 16 16 16 17 15 15 15 15 15 14 13 13 12 12 13 14 13 12 12 12 10 11 10 9 8 8 8 8 8 8 8 8 8 8 7 7 7 6 7 6 6 6 5 6 6 5 5 5 5 5 4 4 3 3 3 3 3 3 3 2 2 2 3
3 3 6 6 9 6 5 8 6 5 1 3 1 5 7 9 4 7 2 2 6 10 9 5 9 7 9 9 12 14 15 15 15 15 16 17 17 16 15 14 14 14 15 13 14 13 13 14 14 15 15 13 12 12 11 12 11 9 9 9 9 9 8 8 7 6 7 8 8 8 7 7 6 6 6 5 6 6 6 5 4 5 4 4 3 3 3 3 3 3 3 2 4 1 2 3 3
4 5 6 7 7 8 3 2 0 3 3 5 3 2 5 8 10 10 4 4 9 7 7 8 11 9 10 12 13 13 15 15 15 16 16 16 14 14 15 16 15 14 14 15 16 16 17 16 14 15 14 12 13 14 13 11 10 10 10 10 9 9 9 10 9 9 9 7 7 7 7 7 7 6 6 5 5 5 5 5 5 5 4 4 4 3 3 3 3 3 3 4 4 3 2 4 3
6 5 8 2 3 4 5 5 2 1 5 5 2 8 2 4 6 5 4 6 13 10 14 12 6 6 11 13 13 15 16 17 17 17 17 17 17 19 17 16 17 18 18 18 18 17 15 15 15 16 14 15 14 14 13 13 12 12 11 11 10 11 10 10 9 9 7 7 6 6 5 6 7 6 6 5 5 5 5 5 5 5 5 4 5 4 4 4 3 3 4 4 4 3 3 3 3
9 5 8 8 4 5 2 4 2 1 2 2 2 4 3 9 8 3 5 11 16 16 13 5 7 11 14 13 14 14 15 14 14 15 14 14 14 15 16 17 17 18 18 17 16 15 12 12 13 14 17 17 16 12 11 10 12 10 10 12 12 11 10 9 8 8 8 8 8 7 7 7 6 6 5 5 5 5 5 5 5 5 5 5 5 5 4 4 4 4 4 4 4 3 4 5 4
3 5 4 0 5 3 5 7 5 6 5 2 4 2 6 7 7 12 12 14 16 16 11 10 12 15 15 13 14 16 16 16 15 15 15 16 17 18 19 18 18 18 17 16 16 14 15 15 15 14 13 10 10 12 11 11 11 10 10 9 9 9 9 9 8 8 8 8 7 8 7 7 7 6 6 6 6 6 6 6 5 5 5 5 5 5 4 4 4 4 4 4 4 4 4 5 5
3 4 3 2 0 3 4 1 4 5 6 6 5 3 6 8 10 11 15 13 15 15 15 13 13 14 16 16 14 13 15 14 15 16 16 17 17 16 16 16 17 17 15 13 12 15 17 14 14 14 15 14 14 13 13 12 10 9 9 10 8 6 7 7 8 8 8 7 7 7 7 7 5 6 6 6 7 7 7 7 7 6 7 7 6 6 5 4 4 5 4 5 4 4 5 5 4
8 9 8 8 5 4 6 9 2 2 3 3 4 8 6 9 5 12 14 14 14 14 15 14 14 14 14 10 12 15 15 16 16 16 16 16 16 16 16 14 12 11 11 13 15 14 14 15 16 15 14 14 14 13 13 12 12 12 14 13 12 10 9 7 8 8 8 7 7 7 7 6 7 6 6 7 7 7 6 7 7 7 7 7 7 7 6 5 5 6 5 4 5 5 5 6 4
Wind_Direction
133 135 126 137 139 156 122 280 52 327 58 34 16 29 262 34 107 87 96 118 117 2 26 55 64 103 172 145 118 99 33 61 15 132 187 161 122 152 130 127 111 113 114 95 84 125 116 123 130 131 145 130 128 130 117 115 128 126 128 129 130 128 130 127 122 126 128 128 129 129 132 134 133 129 126 123 120 118 117 116 113 113 112 116 120 121 119 116 113 108 106 106 110 109 107 110 111
130 129 141 148 164 156 297 86 102 18 46 52 332 60 309 351 53 77 128 122 140 99 86 84 76 80 85 110 133 139 44 40 53 105 82 113 131 110 131 116 115 114 119 114 109 110 124 145 129 134 129 136 141 138 133 148 140 126 128 126 125 127 126 123 119 114 127 126 129 133 138 139 135 128 124 121 119 118 116 115 115 117 122 124 125 125 121 116 112 110 111 113 108 106 104 105 107
134 134 141 186 116 157 106 37 93 90 81 65 291 292 323 32 90 62 76 99 116 120 106 99 96 72 95 76 45 29 61 81 99 101 108 141 126 148 130 124 129 110 106 92 58 70 109 132 133 124 132 136 135 133 132 134 131 131 129 129 130 126 122 121 118 117 132 134 140 140 142 140 131 127 123 120 120 119 119 120 124 127 129 130 129 124 119 116 115 116 114 113 111 108 106 100 100
131 155 149 168 31 23 58 29 83 113 112 188 314 273 150 138 96 96 87 117 128 125 112 52 51 325 90 59 89 71 97 98 102 124 128 164 105 145 134 148 134 111 105 87 51 50 74 123 124 124 127 124 124 123 125 125 128 130 130 131 130 128 125 122 124 132 138 137 141 141 139 130 125 121 120 119 119 125 128 131 132 134 135 133 127 123 120 118 118 116 113 106 108 104 104 94 88
138 161 174 132 112 353 108 112 144 102 123 193 166 258 124 121 127 106 86 97 67 73 75 116 83 38 82 94 61 70 116 108 110 46 105 90 115 126 129 120 109 112 111 104 86 48 92 115 119 117 124 124 125 126 128 129 126 128 128 126 131 130 128 126 135 139 132 133 136 135 130 124 123 123 123 126 131 133 136 138 137 136 134 133 130 125 121 119 115 111 107 106 99 100 95 90 83
110 120 324 96 86 191 45 43 55 27 230 149 137 189 128 151 126 106 92 67 62 68 88 81 118 148 61 36 24 97 141 133 138 74 132 141 133 128 125 124 122 112 119 124 120 95 81 124 130 131 127 123 125 128 127 126 123 123 124 124 125 128 131 137 137 128 130 134 134 131 130 130 130 128 130 134 137 140 140 139 139 137 135 132 134 130 124 118 117 111 109 105 102 104 94 77 73
147 116 341 32 319 68 145 128 173 146 306 155 170 141 150 143 130 117 108 76 45 64 21 102 119 111 85 138 68 48 86 116 141 143 138 139 127 130 132 128 124 119 120 119 111 119 151 142 138 134 129 124 124 127 129 127 127 127 128 131 134 133 130 133 134 140 139 139 137 137 136 134 134 134 136 139 141 142 143 141 140 138 136 139 137 136 130 127 116 112 106 102 98 80 71 55 20
110 94 208 113 192 52 50 132 130 46 152 81 191 138 151 138 146 105 102 100 160 95 77 111 338 95 47 40 113 62 67 61 97 109 120 131 132 127 121 122 128 129 121 110 107 131 147 138 134 130 127 126 126 127 127 130 134 135 138 140 141 139 142 143 147 142 142 141 141 140 138 136 135 139 140 143 144 147 144 144 144 143 148 144 138 139 133 119 110 98 98 96 81 68 80 266 277
88 87 19 72 66 47 69 78 132 342 39 87 89 90 111 138 126 117 84 80 91 93 111 127 173 83 159 88 84 102 86 101 107 116 127 130 134 129 121 129 128 130 128 122 124 140 132 145 135 133 130 129 128 127 127 128 130 134 136 135 134 133 132 133 134 135 138 139 141 141 139 139 140 143 148 149 149 149 151 149 151 157 154 146 142 138 134 119 107 102 89 89 80 36 346 345 333
34 63 245 145 139 88 85 347 75 293 72 63 129 140 138 150 97 104 118 87 110 111 63 63 87 109 127 103 110 71 112 120 120 120 128 133 133 126 126 132 134 135 135 123 124 112 140 144 137 133 130 129 127 126 127 128 130 130 131 130 130 131 131 132 132 133 134 137 138 138 139 142 146 148 152 154 154 153 155 161 162 159 153 146 148 160 153 139 128 121 112 100 73 311 286 331 324
70 358 129 69 57 98 132 131 84 55 80 91 75 112 134 106 116 99 92 108 68 89 106 99 82 117 110 98 66 107 125 125 127 133 139 137 128 127 136 136 133 132 131 128 127 126 124 79 145 137 134 131 130 130 130 131 132 132 131 131 129 128 128 127 129 133 138 139 139 140 141 144 150 154 156 161 162 165 166 168 168 157 159 172 185 191 192 192 164 164 132 75 2 341 326 326 314
90 161 113 100 126 148 205 125 125 102 75 114 155 154 159 130 121 109 128 113 112 119 138 253 141 131 87 106 128 132 133 129 129 135 138 129 126 122 122 123 123 120 123 124 129 127 136 169 132 142 137 137 137 138 137 138 137 136 134 133 131 129 130 135 137 141 143 144 143 143 145 150 156 161 167 167 171 176 174 171 170 186 188 205 220 236 255 242 234 199 209 252 336 318 333 334 338
149 100 109 80 182 89 150 104 155 123 124 197 169 179 114 142 151 132 99 100 120 120 15 92 144 182 107 121 123 134 141 139 137 141 132 128 122 119 117 123 122 114 119 124 131 135 153 152 141 141 149 145 143 143 145 143 142 140 138 135 135 137 142 144 148 148 146 147 146 148 153 158 164 168 172 175 175 183 185 180 198 220 234 240 254 266 291 321 342 331 336 335 340 13 2 345 354
166 179 131 92 44 111 127 126 140 138 208 184 184 123 135 119 186 144 128 108 137 34 133 127 88 102 99 116 139 155 156 144 146 140 133 121 123 125 126 129 129 117 117 133 136 143 146 138 151 167 150 138 147 147 151 149 147 146 144 144 144 148 151 152 152 153 152 153 156 158 161 166 169 172 174 177 184 193 199 212 241 251 263 285 307 323 348 13 359 342 360 348 359 7 351 349 351
194 139 78 110 110 94 211 141 178 163 209 176 177 140 147 43 118 142 118 131 69 118 124 80 153 94 213 167 161 178 158 152 150 135 124 124 122 123 126 124 122 113 127 141 130 135 143 141 139 125 115 124 131 133 143 154 151 150 151 151 153 154 154 155 158 158 163 164 166 168 172 172 176 177 180 189 199 210 217 238 257 268 291 305 319 10 27 13 338 334 333 328 343 337 336 333 356
179 88 88 110 164 139 219 101 110 136 215 181 158 123 87 73 126 123 171 51 131 144 131 156 242 200 145 193 160 154 149 150 142 124 123 125 120 115 120 126 125 119 120 139 139 131 136 136 129 122 112 117 127 125 139 149 157 156 156 157 157 157 159 161 164 168 171 173 174 175 177 182 182 183 193 200 214 225 237 244 262 277 280 291 310 45 120 246 334 6 340 324 327 313 324 341 355
88 82 262 43 170 157 209 153 150 193 188 155 153 143 139 150 182 71 93 113 130 157 60 99 210 111 147 154 138 141 147 145 131 124 125 130 135 136 133 131 133 142 146 146 142 149 149 144 149 116 127 119 124 125 141 137 167 161 160 160 161 163 166 169 169 176 177 180 176 178 183 145 78 44 8 329 237 283 254 258 269 287 298 304 331 340 7 299 217 150 276 300 291 313 305 325 2
96 105 116 247 185 180 183 174 185 172 149 166 169 163 139 152 131 121 96 93 99 89 84 59 57 65 107 123 128 142 146 144 138 140 145 147 152 151 156 159 160 170 171 166 164 162 151 154 150 139 133 145 135 129 127 148 174 154 141 161 161 171 176 177 173 170 181 169 183 179 123 115 95 37 24 339 339 290 310 283 278 288 301 317 334 327 292 298 330 293 349 303 291 296 291 345 299
101 113 101 222 171 236 165 179 171 134 181 160 158 159 161 170 135 171 114 143 128 101 88 103 82 86 107 123 137 148 149 147 145 149 154 157 160 160 161 164 171 169 180 179 178 177 168 158 155 162 161 164 150 144 142 164 127 135 150 152 168 178 187 173 154 168 118 151 86 116 117 81 92 87 298 240 228 255 260 275 282 292 303 312 309 290 302 300 285 278 189 253 283 282 276 186 184
216 112 204 242 205 179 176 157 184 174 147 151 152 165 162 187 140 173 142 152 132 140 139 122 129 138 138 139 147 154 153 150 152 154 160 162 163 163 164 169 174 184 181 182 182 183 173 172 173 173 173 171 162 160 148 153 126 143 144 139 165 164 172 143 157 131 144 144 108 105 96 103 106 72 278 273 272 326 322 296 291 289 294 293 300 308 294 293 297 299 337 267 270 277 186 270 266
275 104 186 229 183 130 214 162 174 158 155 151 151 149 133 194 167 153 140 116 198 197 189 168 160 154 149 149 154 159 156 155 156 160 161 161 163 167 170 173 179 178 175 166 177 192 185 180 173 181 170 169 169 174 160 167 134 144 147 152 151 142 134 110 133 130 136 148 111 92 100 147 197 264 299 310 310 299 321 312 316 326 334 316 319 333 317 311 328 342 19 306 315 286 260 254 256
108 209 213 180 149 146 183 169 152 152 160 143 146 153 177 150 140 154 151 150 192 200 189 154 149 151 150 154 158 157 159 159 164 168 168 168 170 170 167 166 160 163 167 176 186 185 190 182 179 175 164 177 180 176 170 181 160 167 170 175 160 158 147 135 127 151 153 152 124 128 146 203 262 282 299 300 289 298 297 307 303 317 315 297 338 318 315 314 311 330 332 312 321 304 297 291 270
233 290 225 180 177 146 159 142 147 142 154 150 160 169 132 165 165 178 162 163 246 161 149 151 153 151 149 148 152 158 161 166 169 174 171 172 174 176 175 174 172 174 181 185 178 185 186 189 183 176 183 177 184 178 162 182 161 184 174 176 172 197 160 150 178 192 207 173 169 179 197 216 245 258 271 275 279 286 282 290 297 313 308 301 325 314 307 303 301 310 307 303 308 290 289 289 297
196 242 231 197 168 149 154 147 152 158 155 173 154 141 157 144 161 184 196 281 176 127 133 141 140 141 145 152 162 163 168 172 177 177 177 180 177 178 177 176 178 170 182 182 182 178 187 193 187 185 186 182 184 176 173 189 172 176 195 200 193 203 171 193 201 206 205 208 204 213 215 207 217 238 253 256 262 277 261 275 298 305 308 309 325 308 300 300 299 284 292 308 324 332 301 306 301
212 259 225 211 156 149 147 145 157 160 155 133 137 154 181 173 159 152 231 94 118 121 128 136 141 146 154 156 163 166 168 173 176 176 176 179 179 172 175 175 176 175 191 189 182 182 190 187 191 196 192 191 183 176 189 193 187 187 204 200 206 208 192 205 202 194 211 214 214 207 205 215 215 225 234 241 246 250 259 270 286 285 294 286 307 289 274 294 291 283 307 322 332 323 320 308 296
201 228 148 146 137 145 143 143 151 147 139 144 142 165 108 91 101 93 177 122 125 125 132 141 146 152 160 167 164 165 171 176 174 176 182 174 173 174 184 183 180 190 195 187 184 192 185 183 190 195 192 188 183 182 192 192 198 201 204 211 204 214 204 197 197 205 214 210 224 205 207 211 217 214 226 228 222 242 242 247 247 254 260 259 259 273 274 265 280 306 301 307 288 301 316 314 317
193 91 125 126 139 130 149 142 151 153 153 158 151 148 153 148 141 181 165 139 132 132 140 148 152 159 165 167 169 170 173 176 180 176 171 172 177 183 183 182 188 194 187 191 191 190 184 184 192 194 192 194 180 192 191 200 196 208 209 207 203 211 208 198 201 210 213 219 224 208 204 220 223 223 225 224 221 232 250 264 262 272 278 275 281 291 325 316 321 333 357 321 312 319 312 310 292
99 123 79 66 96 113 129 125 138 124 140 162 135 119 114 165 18 197 158 152 147 141 153 153 161 164 166 170 170 175 180 181 176 173 180 176 183 182 183 184 189 187 189 195 191 182 181 189 190 192 191 193 187 194 197 201 206 209 211 201 209 212 206 209 206 204 216 221 222 211 207 210 227 228 229 231 225 212 233 254 278 274 267 294 342 352 348 328 329 333 274 270 262 287 298 288 278
158 111 82 56 104 109 150 146 159 148 141 136 120 92 140 207 230 140 154 146 150 148 156 160 164 168 169 170 169 177 186 180 180 185 191 186 181 183 186 187 184 188 195 190 183 179 187 187 188 191 189 193 188 193 197 201 203 207 204 207 210 208 213 212 217 211 214 217 214 213 209 213 219 228 229 232 238 216 206 240 263 258 289 348 355 354 331 350 301 264 258 249 250 264 278 289 288
95 39 114 87 87 117 216 80 141 135 159 147 140 125 224 222 242 143 154 148 144 144 159 168 167 170 174 173 174 181 186 182 189 194 192 189 186 187 190 189 188 189 187 185 176 187 187 184 187 184 189 193 194 194 198 202 203 203 209 207 209 204 206 214 223 218 212 213 217 219 220 213 219 222 220 227 217 203 201 221 301 327 354 355 32 319 289 291 256 251 257 240 245 242 254 275 292
93 78 51 136 122 188 210 170 167 133 175 171 103 156 242 224 217 159 161 156 154 161 168 172 171 174 177 180 178 185 191 191 192 194 196 193 192 195 196 188 191 189 185 184 190 189 183 183 182 185 192 193 195 197 201 205 200 201 204 206 205 202 204 205 218 220 213 211 199 219 218 222 225 223 221 219 217 208 168 75 295 318 296 279 279 242 241 238 255 256 253 241 261 276 265 273 295
139 96 181 328 160 209 206 208 179 147 211 211 62 42 222 209 180 169 164 165 161 161 170 174 175 178 181 182 185 189 193 193 200 199 199 198 196 200 194 195 191 186 189 193 193 184 188 183 184 184 188 192 197 197 201 202 200 203 206 209 209 203 201 205 213 216 219 209 208 214 212 221 224 222 217 206 219 201 185 197 211 239 243 245 252 270 252 247 240 245 242 236 287 307 307 304 294
348 112 155 178 180 185 162 238 213 309 160 212 215 205 81 270 179 167 171 166 169 166 173 175 180 182 182 185 189 191 190 200 206 206 205 201 202 201 199 196 188 192 194 189 187 186 191 186 186 185 188 191 195 197 199 200 196 204 207 213 212 202 203 213 212 208 217 220 216 227 216 216 225 216 210 201 202 197 204 214 223 232 240 244 262 247 241 246 240 261 287 259 244 271 290 302 306
200 21 150 189 175 172 222 105 191 146 171 192 167 134 215 201 158 169 175 174 170 175 179 182 184 186 187 187 191 192 194 198 206 208 208 202 204 203 201 198 196 194 193 192 190 188 190 187 189 188 188 190 192 196 198 198 198 201 209 214 212 208 217 220 218 197 218 225 219 230 219 220 221 192 180 180 203 201 200 201 213 222 229 243 242 235 245 244 225 226 288 283 240 229 264 298 301
177 159 130 231 276 213 176 163 202 146 201 206 150 117 196 146 160 174 177 178 180 183 183 185 187 190 190 192 195 195 197 201 211 208 205 201 202 204 201 200 199 196 195 193 192 194 188 190 189 193 190 191 193 195 197 196 191 199 206 204 217 223 226 226 211 215 229 227 220 228 213 200 197 167 181 190 199 206 202 207 210 215 224 221 261 298 293 310 327 221 247 296 251 237 286 293 294
186 174 167 156 191 206 225 210 151 166 179 196 184 185 170 165 169 176 179 181 187 194 189 187 192 193 193 195 199 200 201 209 211 207 206 201 199 198 201 199 201 197 195 191 191 189 190 192 196 197 196 192 188 188 184 188 186 195 204 204 219 225 220 212 210 222 227 227 229 204 187 177 181 181 187 180 190 197 202 216 223 195 242 286 320 320 325 330 293 314 326 330 332 330 318 297 301
158 129 134 187 196 267 274 262 218 173 148 203 194 158 168 175 178 182 181 177 193 198 195 194 196 196 197 200 201 205 206 213 205 202 203 202 199 197 198 197 200 196 195 191 189 193 192 193 189 203 198 186 183 181 184 184 190 199 205 210 218 212 207 207 213 218 213 220 207 190 177 173 186 187 187 176 190 207 202 203 245 254 320 316 279 247 253 276 295 306 317 351 347 355 327 339 331
147 162 171 204 175 223 242 279 240 186 171 204 151 154 199 187 184 181 175 175 199 200 199 201 198 199 200 201 203 204 211 220 206 201 206 204 201 198 194 196 195 193 200 191 194 196 196 192 196 203 192 189 191 190 189 189 193 196 188 197 189 192 195 189 207 202 207 193 176 176 171 177 185 192 183 186 178 176 173 291 318 291 300 284 232 254 312 345 356 350 330 9 43 13 307 327 331
147 152 178 188 224 169 219 143 175 208 106 250 151 174 208 215 191 181 183 193 201 198 197 198 194 200 203 206 207 207 207 212 207 207 199 200 199 195 192 196 199 200 195 193 197 195 196 195 202 200 197 192 197 193 183 194 194 192 188 186 183 178 192 187 184 186 178 178 176 176 176 171 173 178 177 174 170 162 167 205 239 248 235 195 25 360 23 20 24 15 150 195 334 34 326 321 360
133 96 117 208 217 152 253 236 151 76 163 203 168 133 322 76 190 208 207 201 205 203 204 207 201 201 204 206 202 202 203 201 205 205 201 200 197 194 192 196 200 199 197 198 196 197 195 199 202 200 201 199 198 196 193 195 186 184 187 172 175 150 168 146 113 97 162 159 190 187 182 170 173 169 172 165 159 174 190 209 217 205 206 172 149 347 5 323 336 14 143 128 120 39 25 346 348
243 166 143 136 172 203 155 196 127 102 21 88 93 60 327 204 180 215 226 220 216 203 205 214 220 221 217 214 211 206 201 198 201 204 204 197 196 197 194 196 193 196 199 196 195 196 197 200 201 199 199 200 200 195 194 176 157 140 124 72 90 85 51 89 121 122 149 179 163 186 195 173 171 167 169 175 179 198 204 204 194 188 143 185 157 95 243 229 260 262 170 148 165 134 64 356 345
229 227 181 185 192 151 106 126 126 167 261 258 139 23 273 239 208 209 197 201 217 207 201 213 211 217 214 214 214 212 213 202 197 198 199 197 197 196 196 194 194 199 200 200 196 196 195 200 200 200 201 201 200 196 188 169 177 167 161 161 172 181 184 157 187 191 184 167 196 187 161 172 170 164 173 182 196 184 182 183 168 160 174 186 189 186 209 260 219 213 206 179 177 203 142 45 321
148 253 185 194 169 144 141 142 117 118 202 215 179 185 261 311 225 209 201 206 213 211 214 214 211 212 208 211 213 208 205 204 210 206 196 194 199 195 196 195 197 199 204 197 195 197 198 199 198 196 198 201 199 192 182 177 180 181 185 189 190 190 196 229 228 204 176 192 144 165 169 158 167 168 181 177 170 173 164 161 167 178 181 184 193 155 200 230 216 188 163 175 195 160 156 129 289
212 237 166 179 132 143 160 156 163 201 91 28 174 139 187 305 257 197 196 203 214 221 226 220 212 211 209 208 209 208 207 202 198 200 197 198 194 194 197 197 195 200 198 192 196 196 196 199 196 198 199 200 196 186 183 184 185 186 188 194 191 190 192 198 191 185 182 153 155 158 149 168 170 181 164 162 161 176 169 168 176 165 165 176 196 199 217 230 311 296 141 140 170 178 174 194 243
213 197 152 167 169 168 166 160 186 169 140 308 223 7 233 266 270 241 164 203 223 227 224 220 215 210 209 208 208 207 206 202 198 197 198 197 198 200 197 196 200 197 193 193 195 195 196 197 196 196 198 198 195 187 185 189 189 185 188 185 192 194 185 186 174 165 164 162 146 138 155 164 166 164 154 166 180 180 186 179 174 166 155 172 201 187 223 200 198 139 158 182 190 196 198 194 160
267 133 81 74 77 128 167 172 170 98 131 222 213 189 198 275 286 153 198 202 223 228 223 221 211 209 206 206 209 208 205 204 203 202 198 198 199 199 198 196 193 197 193 194 195 191 193 192 194 192 199 197 192 189 188 189 188 180 183 184 187 180 167 147 159 167 168 159 161 171 163 167 174 170 154 159 176 190 181 165 168 174 175 182 198 191 170 191 199 191 187 189 174 182 210 196 208
141 115 88 40 47 61 26 56 99 70 206 236 210 197 185 247 244 184 154 209 214 224 228 225 215 213 210 207 204 204 203 202 201 202 203 202 199 193 183 191 198 191 191 190 192 193 190 189 191 192 197 192 188 189 185 189 186 182 186 183 184 176 172 163 162 177 157 152 173 180 176 186 177 174 161 171 195 181 174 170 167 176 180 183 190 178 196 191 191 188 175 164 158 165 184 199 221
132 120 123 96 22 23 39 352 52 153 250 257 221 195 197 214 285 242 221 216 210 210 218 211 202 205 207 206 205 203 199 197 199 198 201 200 190 190 186 194 190 192 188 191 194 192 192 191 189 194 195 190 188 188 187 188 186 187 186 180 182 179 169 172 178 179 181 180 181 183 190 166 185 159 172 173 176 168 161 168 168 160 185 193 198 199 199 193 183 163 160 172 167 156 162 176 196
116 95 88 151 250 42 310 59 157 193 198 243 146 134 18 249 235 221 227 236 231 220 221 215 201 203 204 205 204 201 197 193 195 197 198 193 190 187 190 194 188 189 193 191 192 191 192 192 192 194 198 191 189 185 188 188 186 187 183 180 183 175 177 177 179 178 180 181 178 177 170 184 174 165 197 181 197 180 172 167 172 189 201 206 192 181 203 188 169 179 180 193 185 195 196 179 190
131 152 143 136 146 175 190 254 251 321 295 247 140 167 217 275 293 250 235 238 233 224 225 224 199 201 200 202 199 195 194 194 196 196 196 193 192 191 191 190 190 193 194 193 192 191 191 193 194 197 199 190 187 187 188 186 191 187 182 180 179 174 182 180 180 177 182 180 176 180 180 182 180 186 181 196 191 186 187 195 191 198 196 188 189 196 193 192 171 184 193 199 210 216 183 189 208
193 144 162 175 148 158 196 181 174 196 202 356 158 115 232 177 235 221 223 231 221 231 238 252 190 212 211 206 194 193 194 195 195 196 197 194 192 189 189 191 193 194 195 194 193 194 190 194 194 199 198 193 188 189 185 188 189 183 181 181 177 176 180 181 184 182 173 173 182 179 185 181 178 190 186 198 186 182 198 201 207 199 202 202 194 195 193 180 179 175 198 222 236 191 189 189 215
207 170 87 135 213 141 200 198 165 206 160 70 200 195 196 199 289 304 308 325 221 233 238 199 214 191 190 185 191 194 196 197 196 199 199 198 193 189 189 190 193 195 194 194 196 194 195 198 197 198 198 191 189 188 191 187 186 180 180 179 182 180 179 177 180 180 175 175 175 179 183 183 190 184 197 183 190 183 195 203 204 212 213 214 211 206 196 193 182 190 220 221 254 171 182 203 219
226 125 200 212 172 143 84 68 164 115 52 249 187 315 288 311 315 281 336 312 273 254 234 194 215 187 172 194 195 193 194 196 196 199 199 197 192 192 191 191 192 193 192 195 197 196 197 196 195 197 198 192 190 192 189 186 181 178 184 183 179 180 178 180 184 181 176 181 176 181 177 188 187 186 189 187 186 196 200 199 203 216 219 220 230 232 221 218 194 207 224 229 245 229 201 227 219
108 179 222 140 95 107 140 209 354 81 186 254 124 194 216 113 271 295 246 253 258 255 245 219 195 148 185 199 195 191 193 198 197 199 198 194 191 191 193 194 192 192 195 198 199 198 199 196 195 195 193 193 196 192 189 185 181 183 181 185 185 185 184 184 179 176 172 169 179 175 173 173 191 195 187 185 182 197 206 205 202 218 225 220 227 234 227 228 208 218 220 225 230 212 225 244 232
187 198 177 153 221 246 310 111 193 130 228 257 278 241 250 196 229 319 245 216 238 244 246 219 181 188 200 201 197 192 194 194 194 198 197 196 196 196 195 195 195 196 198 199 200 195 195 198 199 196 198 199 193 189 187 186 183 183 184 186 186 189 186 180 177 171 167 172 172 174 181 191 191 190 187 186 189 205 209 213 206 219 222 228 226 229 216 218 203 222 221 228 224 205 218 239 237
39 77 132 263 122 157 142 200 173 155 236 135 289 101 221 213 221 203 226 216 224 234 241 230 212 200 202 200 193 189 190 194 193 195 196 196 197 196 194 194 194 195 198 199 194 191 196 199 197 201 203 194 184 189 185 185 189 186 186 185 190 187 182 175 172 167 173 173 171 175 184 186 199 188 196 191 197 206 206 208 206 208 216 221 227 226 209 205 194 211 211 220 221 196 217 232 244
167 172 196 196 77 221 115 71 136 180 175 188 176 243 273 248 213 198 219 218 219 216 223 228 225 212 208 202 188 184 189 190 192 194 195 197 199 197 198 198 199 198 198 193 190 195 200 196 199 198 194 193 191 189 184 190 179 181 173 181 183 180 180 174 169 173 168 169 170 180 187 195 183 198 192 197 205 210 208 209 209 210 213 217 218 228 211 196 196 210 212 218 214 197 210 234 239
177 176 198 167 134 155 211 251 31 113 136 212 166 235 259 254 182 203 217 220 215 216 211 221 227 218 211 190 180 181 188 194 193 194 194 197 196 195 197 196 197 190 190 189 195 198 196 196 200 197 197 196 194 187 189 183 182 183 180 175 175 181 179 171 172 172 168 167 176 185 191 183 192 204 190 204 209 212 211 209 207 219 220 217 219 225 215 193 199 212 222 190 210 202 211 232 224